Weather History for Greybull, WY

Change the Weather History Date:

Monday, February 10, 2014

  Actual Average Record
Temperature  
Mean Temperature 6 °F 21 °F  
Max Temperature 16 °F 33 °F 51 °F (1999)
Min Temperature -5 °F 9 °F -17 °F (2001)
Degree Days  
Heating Degree Days 59 44  
Month to date heating degree days 644 451  
Since 1 July heating degree days 5117 5265  
Cooling Degree Days 0 0  
Month to date cooling degree days 0 0  
Year to date cooling degree days 0 0  
Moisture  
Dew Point -2 °F    
Average Humidity 76    
Maximum Humidity 91    
Minimum Humidity 61    
Precipitation  
Precipitation 0.00 in 0.01 in 0.06 in (2003)
Month to date precipitation 0.08 0.06  
Year to date precipitation 0.12 0.29  
Sea Level Pressure  
Sea Level Pressure 30.34 in    
Wind  
Wind Speed 3 mph (SSW)    
Max Wind Speed 10 mph    
Max Gust Speed 12 mph    
Visibility 10 miles    
Events      
T = Trace of Precipitation, MM = Missing Value Source: NWS Daily Summary

Daily Weather History Graph

Daily Weather History Graph

Search for Another Location

Airport:

Trip Planner

Search our weather history database for the weather conditions in past years. The results will help you decide how hot, cold, wet, or windy it might be!

Date:

Astronomy

Feb. 10, 2014 Rise Set
Actual Time 7:19 AM MST 5:34 PM MST
Civil Twilight 6:49 AM MST 6:04 PM MST
Nautical Twilight 6:14 AM MST 6:38 PM MST
Astronomical Twilight 5:41 AM MST 7:12 PM MST
Moon 2:01 PM MST (2/10) 4:18 AM MST (2/10)
Length of Visible Light 11h 15m
Length of Day
10h 14m
Waxing Gibbous, 85% of the Moon is Illuminated
Feb 10
Waxing Gibbous
Feb 14
Full
Feb 22
Last Quarter
Mar 1
New
Mar 8
First Quarter

Hourly Weather History & Observations

Time (MST) Temp. Windchill Dew Point Humidity Pressure Visibility Wind Dir Wind Speed Gust Speed Precip Events Conditions
12:53 AM -0.0 °F -9.9 °F -5.1 °F 79% 30.30 in 10.0 mi West 4.6 mph - N/A   Overcast
1:53 AM -0.0 °F -13.0 °F -5.1 °F 79% 30.29 in 10.0 mi SSE 6.9 mph - N/A   Mostly Cloudy
2:53 AM -0.9 °F -14.1 °F -5.1 °F 83% 30.30 in 10.0 mi South 6.9 mph - N/A   Overcast
3:53 AM -0.9 °F -8.9 °F -5.1 °F 83% 30.30 in 10.0 mi South 3.5 mph - N/A   Overcast
4:53 AM -2.0 °F -16.6 °F -7.1 °F 79% 30.31 in 10.0 mi SSW 8.1 mph - N/A   Scattered Clouds
5:53 AM -0.9 °F - -5.1 °F 83% 30.33 in 10.0 mi Calm Calm - N/A   Overcast
6:53 AM -0.9 °F -8.9 °F -5.1 °F 83% 30.31 in 10.0 mi SSE 3.5 mph - N/A   Overcast
7:53 AM 1.9 °F -7.6 °F -2.9 °F 80% 30.33 in 10.0 mi SW 4.6 mph - N/A   Overcast
8:53 AM 3.0 °F -4.4 °F -2.0 °F 80% 30.36 in 10.0 mi NW 3.5 mph - N/A   Overcast
9:53 AM 5.0 °F - -0.0 °F 80% 30.36 in 10.0 mi Calm Calm - N/A   Overcast
10:53 AM 8.1 °F -0.5 °F 1.0 °F 73% 30.36 in 10.0 mi North 4.6 mph - N/A   Overcast
11:53 AM 10.0 °F 1.8 °F 1.9 °F 70% 30.35 in 10.0 mi West 4.6 mph - N/A   Scattered Clouds
12:53 PM 10.9 °F - 3.0 °F 70% 30.34 in 10.0 mi Calm Calm - N/A   Clear
1:53 PM 12.9 °F - 3.0 °F 65% 30.32 in 10.0 mi Calm Calm - N/A   Clear
2:53 PM 14.0 °F 5.1 °F 3.9 °F 64% 30.32 in 10.0 mi SSW 5.8 mph - N/A   Clear
3:53 PM 15.1 °F - 5.0 °F 64% 30.33 in 10.0 mi Calm Calm - N/A   Clear
4:53 PM 12.0 °F 4.1 °F 3.9 °F 70% 30.34 in 10.0 mi ESE 4.6 mph - N/A   Clear
5:53 PM 9.0 °F 2.4 °F 3.0 °F 77% 30.36 in 10.0 mi ESE 3.5 mph - N/A   Clear
6:53 PM 3.0 °F - -0.0 °F 87% 30.38 in 10.0 mi Calm Calm - N/A   Clear
7:53 PM -0.0 °F - -4.0 °F 83% 30.38 in 10.0 mi Calm Calm - N/A   Clear
8:53 PM -2.0 °F - -7.1 °F 79% 30.37 in 10.0 mi Calm Calm - N/A   Clear
9:53 PM -4.0 °F -12.4 °F -7.1 °F 87% 30.36 in 10.0 mi West 3.5 mph - N/A   Clear
10:53 PM -5.1 °F - -8.0 °F 87% 30.35 in 10.0 mi Calm Calm - N/A   Scattered Clouds
11:53 PM -4.0 °F - -7.1 °F 87% 30.32 in 10.0 mi Calm Calm - N/A   Partly Cloudy